[[{"header":{"parameterUnit":"m.s-1","parameterCategory":1,"la1":30.2991,"la2":30.254,"lo1":-89.0895,"lo2":-89.0444,"dy":0.0017,"dx":0.0017,"nx":28,"ny":28,"refTime":"2025-04-30T09:00:00:Z","depth":0,"parameterNumber":2,"parameterNumberName":"U-component_of_WINDS"},"data":[0,0,0,0,0,0,0,0,0,0,0,0,0,0,0,0,0,0,0,0,0,0,0,0,0,0,0,0,0,0,0,0,0,0,0,0,0,0,0,0,0,0,0,0,0,0,0,0,0,0,0,0,0,0,0,0,0,0,-3.6789,-3.679,0,-3.6839,-3.6839,-3.684,-3.681,-3.6809,-3.6807,-3.6806,-3.6855,-3.6857,-3.686,0,0,0,0,0,0,0,0,0,0,0,0,0,-3.6667,-3.667,-3.6789,-3.679,-3.679,-3.6839,-3.6839,-3.684,-3.681,-3.6809,-3.6807,-3.6805,-3.6854,-3.6857,-3.686,0,0,0,0,0,0,0,0,0,0,0,0,0,-3.6719,-3.667,-3.6789,-3.6781,-3.6781,-3.6839,-3.6839,-3.684,-3.6811,-3.6809,-3.6806,-3.6804,-3.6853,-3.6856,-3.686,-3.6927,0,0,-3.6872,-3.6874,0,0,0,0,0,0,0,0,-3.6716,-3.6723,-3.6782,-3.6782,-3.6782,-3.6816,-3.6814,-3.6869,-3.6811,-3.6799,-3.6806,-3.6803,-3.6843,-3.6848,-3.6862,-3.693,-3.6932,-3.6873,-3.6875,-3.6877,-3.6878,0,0,0,0,0,0,0,-3.6712,-3.6721,-3.6809,-3.6783,-3.6783,-3.6775,-3.678,-3.6824,-3.6833,-3.68,-3.6798,-3.6805,-3.6843,-3.6858,-3.6863,-3.6932,-3.6873,-3.6876,-3.6878,-3.688,-3.7057,-3.706,0,0,0,0,0,0,-3.671,-3.6718,-3.6807,-3.681,-3.6743,-3.6779,-3.6785,-3.6807,-3.6832,-3.6834,-3.6806,-3.6803,-3.6852,-3.6858,-3.6864,-3.6944,-3.6877,-3.688,-3.6883,-3.7055,-3.7058,-3.7061,0,0,0,0,0,0,-3.6707,-3.6718,-3.6805,-3.6764,-3.6774,-3.6783,-3.6809,-3.6809,-3.6824,-3.6837,-3.6838,-3.682,-3.6851,-3.6859,-3.6912,-3.6945,-3.6882,-3.6886,-3.7052,-3.7056,-3.7059,-3.7103,0,0,0,0,0,0,-3.6704,-3.6717,-3.6743,-3.6764,-3.6777,-3.6852,-3.6811,-3.6812,-3.6832,-3.6828,-3.685,-3.6852,-3.685,-3.6906,-3.6916,-3.6949,-3.6889,-3.7049,-3.7054,-3.7058,-3.7099,-3.7108,-3.7116,0,0,0,0,0,-3.6699,-3.6753,-3.6744,-3.6755,-3.6809,-3.6854,-3.6861,-3.6858,-3.6834,-3.686,-3.6868,-3.6851,-3.694,-3.6912,-3.6923,-3.6957,-3.7047,-3.7053,-3.7058,-3.7095,-3.7106,-3.7115,0,0,0,0,0,0,-3.6733,-3.6755,-3.6746,-3.6808,-3.683,-3.6849,-3.6881,-3.687,-3.6898,-3.6893,-3.6888,-3.6893,-3.6949,-3.6959,-3.6927,-3.7024,-3.699,-3.6998,-3.7015,-3.7025,-3.7033,-3.7029,-3.6892,0,0,0,0,0,-3.6748,-3.6784,-3.6801,-3.6854,-3.6865,-3.6872,-3.6891,-3.6888,-3.6909,-3.6918,-3.693,-3.6951,-3.6984,-3.7006,-3.7036,-3.7101,-3.7105,-3.7131,-3.7139,-3.7146,-3.7152,-3.7186,-3.7197,-3.7078,-3.7078,-3.7078,0,0,-3.6779,-3.6795,-3.6818,-3.6861,-3.6877,-3.6914,-3.6879,-3.6919,-3.6946,-3.6924,-3.6974,-3.6985,-3.7008,-3.7067,-3.7094,-3.7077,-3.7186,-3.7152,-3.7158,-3.716,-3.7193,-3.7204,-3.7214,-3.7082,-3.7081,-3.708,0,0,-3.6853,-3.6869,-3.6915,-3.6933,-3.6958,-3.6962,-3.6974,-3.6995,-3.7001,-3.7052,-3.7037,-3.7069,-3.7125,-3.7142,-3.7159,-3.7242,-3.7227,-3.7252,-3.7294,-3.7328,-3.7338,-3.7346,-3.7374,-3.7384,-3.7258,-3.7258,-3.7258,0,-3.6887,-3.6942,-3.694,-3.6981,-3.7,-3.6984,-3.703,-3.7047,-3.7081,-3.7094,-3.7076,-3.7147,-3.7162,-3.7224,-3.7245,-3.7259,-3.7271,-3.7248,-3.7337,-3.7345,-3.7352,-3.7379,-3.739,-3.7261,-3.7261,-3.7261,-3.726,0,-3.6982,-3.702,-3.7054,-3.7089,-3.7112,-3.7156,-3.716,-3.7184,-3.7179,-3.7185,-3.7238,-3.7255,-3.7289,-3.7304,-3.7299,-3.7367,-3.7355,-3.7337,-3.7303,-3.7367,-3.7392,-3.7402,-3.7265,-3.7264,-3.7263,-3.7263,0,0,-3.7076,-3.711,-3.7123,-3.7138,-3.7166,-3.7195,-3.7238,-3.7273,-3.7293,-3.7318,-3.7353,-3.7402,-3.7386,-3.7404,-3.7402,-3.7431,-3.7495,-3.7409,-3.741,-3.7423,-3.7569,-3.7581,-3.7593,-3.7486,-3.7488,-3.749,-3.7566,0,-3.7151,-3.7226,-3.7226,-3.7295,-3.733,-3.7316,-3.7354,-3.7375,-3.7382,-3.7413,-3.7421,-3.7455,-3.7432,-3.7443,-3.7472,-3.7481,-3.7523,-3.7476,-3.7517,-3.7519,-3.751,-3.7606,-3.7619,-3.769,-3.7576,-3.7578,-3.7579,0,-3.7247,-3.7276,-3.7349,-3.7372,-3.7387,-3.742,-3.7452,-3.7482,-3.7505,-3.7509,-3.7531,-3.7524,-3.7567,-3.7534,-3.7593,-3.756,-3.7578,-3.7585,-3.7588,-3.759,-3.7551,-3.7609,-3.7713,-3.7723,-3.7595,-3.7594,-3.7592,0,-3.7306,-3.7364,-3.7414,-3.7428,-3.7457,-3.7481,-3.7494,-3.7516,-3.7537,-3.7565,-3.7578,-3.7611,-3.7628,-3.7653,-3.7655,-3.7631,-3.7715,-3.7681,-3.7717,-3.7717,-3.7734,-3.7732,-3.784,-3.7749,-3.7749,-3.7748,-3.7748,0,-3.7388,-3.7433,-3.7442,-3.7473,-3.7523,-3.7523,-3.7572,-3.7583,-3.7603,-3.7636,-3.7626,-3.7657,-3.7658,-3.769,-3.7692,-3.774,-3.7749,-3.7752,-3.7751,-3.7752,-3.7751,-3.7761,-3.7756,-3.7751,-3.7751,-3.775,-3.7749,0,-3.7462,-3.747,-3.7524,-3.7548,-3.7555,-3.759,-3.761,-3.764,-3.7647,-3.7689,-3.7698,-3.771,-3.7747,-3.7752,-3.7795,-3.7796,-3.7854,-3.7849,-3.7845,-3.7844,-3.7879,-3.7875,-3.7996,-3.8011,-3.7912,-3.7913,-3.7913,0,-3.7512,-3.7547,-3.7575,-3.7596,-3.7611,-3.7646,-3.7667,-3.767,-3.7692,-3.7723,-3.7749,-3.7785,-3.7813,-3.7873,-3.7884,-3.7917,-3.7912,-3.7952,-3.7917,-3.7916,-3.7911,-3.7908,-3.7911,-3.7958,-3.7959,-3.796,-3.7961,0,-3.7601,-3.7604,-3.7635,-3.7669,-3.7695,-3.7722,-3.7746,-3.7765,-3.777,-3.7796,-3.7834,-3.7857,-3.7901,-3.7937,-3.797,-3.7982,-3.7972,-3.7973,-3.7982,-3.7982,-3.7978,-3.7979,-3.7862,-3.7969,-3.7968,-3.7968,-3.7967,-3.7967,-3.7664,-3.7694,-3.7718,-3.7754,-3.7773,-3.7797,-3.7826,-3.7837,-3.7869,-3.7906,-3.7906,-3.7947,-3.7971,-3.8014,-3.8029,-3.8061,-3.8048,-3.8063,-3.8066,-3.8069,-3.8072,-3.7975,-3.8068,-3.8067,-3.8067,-3.8067,-3.8067,0,-3.7751,-3.7766,-3.7799,-3.7835,-3.7863,-3.7853,-3.788,-3.7904,-3.7941,-3.7964,-3.7993,-3.8037,-3.8072,-3.8087,-3.8121,-3.8144,-3.814,-3.8153,-3.815,-3.8153,-3.8082,-3.807,-3.8155,-3.8155,-3.8155,-3.8155,-3.8155,-3.8155,-3.7799,-3.7848,-3.7854,-3.7913,-3.7928,-3.7969,-3.7986,-3.8007,-3.8026,-3.8075,-3.8105,-3.8115,-3.8135,-3.8171,-3.8202,-3.8206,-3.8218,-3.8232,-3.8234,-3.8167,-3.8158,-3.8149,-3.8137,-3.8235,-3.8235,-3.8301,-3.8302,-3.8302]},{"header":{"parameterUnit":"m.s-1","parameterCategory":1,"la1":30.2991,"la2":30.254,"lo1":-89.0895,"lo2":-89.0444,"dy":0.0017,"dx":0.0017,"nx":28,"ny":28,"refTime":"2025-04-30T09:00:00:Z","depth":0,"parameterNumber":3,"parameterNumberName":"V-component_of_WINDS"},"data":[0,0,0,0,0,0,0,0,0,0,0,0,0,0,0,0,0,0,0,0,0,0,0,0,0,0,0,0,0,0,0,0,0,0,0,0,0,0,0,0,0,0,0,0,0,0,0,0,0,0,0,0,0,0,0,0,0,0,4.0003,4.0003,0,3.9994,3.9994,3.9994,3.9952,3.9951,3.995,3.9949,3.994,3.9941,3.9942,0,0,0,0,0,0,0,0,0,0,0,0,0,3.9984,3.9984,4.0003,4.0003,4.0003,3.9994,3.9994,3.9994,3.9952,3.9951,3.9949,3.9948,3.994,3.9941,3.9942,0,0,0,0,0,0,0,0,0,0,0,0,0,3.9985,3.9984,4.0003,3.9981,3.9979,3.9995,3.9994,3.9994,3.9952,3.9951,3.9949,3.9948,3.994,3.9941,3.9942,3.9979,0,0,3.9945,3.9946,0,0,0,0,0,0,0,0,3.9985,3.9986,3.9984,3.9982,3.998,3.9973,3.9984,3.9989,3.9953,3.9962,3.9949,3.9947,3.9952,3.9952,3.9954,3.9978,3.9978,3.9945,3.9946,3.9946,3.9947,0,0,0,0,0,0,0,3.9985,3.9986,4.0,3.9984,3.9982,3.9971,3.997,3.9985,3.9966,3.9961,3.9958,3.9958,3.9951,3.9953,3.9953,3.9978,3.9945,3.9946,3.9947,3.9947,4.0033,4.0034,0,0,0,0,0,0,3.9988,3.9986,4.0,3.9999,3.9979,3.9973,3.9971,3.9976,3.9966,3.9962,3.9959,3.9956,3.9952,3.9952,3.9953,3.9995,3.9946,3.9947,3.9948,4.0031,4.0033,4.0035,0,0,0,0,0,0,3.9988,3.999,4.0,3.9992,3.9993,3.9975,3.9981,3.9977,3.9979,3.9964,3.996,3.9965,3.9951,3.9951,3.9973,3.9994,3.9948,3.9949,4.0029,4.0032,4.0034,4.0081,0,0,0,0,0,0,3.9988,3.999,4.0003,3.9993,3.9993,4.002,3.9982,3.9978,3.9981,3.9977,3.9968,3.9965,3.995,3.9971,3.9974,3.9995,3.995,4.0027,4.003,4.0033,4.0077,4.0084,4.0091,0,0,0,0,0,3.9987,4.0017,4.0004,4.0006,4.001,4.0021,4.0021,4.0003,3.9983,3.9997,3.9987,3.9966,3.9992,3.9974,3.9976,3.9998,4.0026,4.003,4.0033,4.0074,4.0083,4.0091,0,0,0,0,0,0,4.003,4.0015,4.0001,4.0028,4.0026,4.0014,4.003,4.0013,4.0017,4.0012,3.9989,3.9988,4.0012,4.0008,3.9988,4.0034,4.0005,4.001,4.0036,4.0044,4.0051,4.0051,3.9951,0,0,0,0,0,4.0043,4.0053,4.004,4.0065,4.0065,4.0048,4.0052,4.0038,4.0035,4.0034,4.0026,4.0025,4.0033,4.0038,4.0045,4.0077,4.0074,4.0093,4.01,4.0106,4.0109,4.0126,4.0134,4.0047,4.0047,4.0047,0,0,4.0069,4.0062,4.007,4.0073,4.007,4.0082,4.0047,4.0061,4.007,4.0037,4.0056,4.005,4.0047,4.0074,4.0085,4.0071,4.0133,4.011,4.0115,4.0115,4.0131,4.0139,4.0146,4.005,4.0049,4.0049,0,0,4.0122,4.0118,4.0139,4.0137,4.0133,4.0122,4.0127,4.0118,4.0113,4.0132,4.0108,4.0118,4.0132,4.0131,4.0132,4.0187,4.0168,4.019,4.0225,4.0242,4.0249,4.0255,4.0274,4.0281,4.0194,4.0194,4.0194,0,4.0155,4.0171,4.0152,4.0167,4.017,4.0141,4.0162,4.0161,4.016,4.0162,4.0146,4.0164,4.016,4.0186,4.02,4.0202,4.0207,4.019,4.0249,4.0255,4.0261,4.0279,4.0286,4.0197,4.0197,4.0196,4.0196,0,4.0212,4.0224,4.0241,4.0241,4.0245,4.0264,4.0247,4.0254,4.0241,4.0231,4.0252,4.0246,4.0251,4.0257,4.0243,4.0282,4.0273,4.0254,4.0224,4.0272,4.0288,4.0295,4.0201,4.02,4.0199,4.0199,0,0,4.029,4.028,4.0286,4.0286,4.0281,4.029,4.0307,4.0312,4.0319,4.032,4.0334,4.0347,4.033,4.0331,4.0318,4.0333,4.0376,4.0311,4.0311,4.0323,4.0418,4.0432,4.044,4.0364,4.0365,4.0366,4.0418,0,4.0341,4.0369,4.0353,4.0384,4.0395,4.0369,4.0385,4.0383,4.0376,4.0384,4.0376,4.0386,4.0362,4.0363,4.0377,4.0368,4.0395,4.0364,4.0377,4.0377,4.0377,4.0449,4.0463,4.0513,4.0425,4.0426,4.0427,0,4.0403,4.0407,4.0439,4.0432,4.0436,4.045,4.0454,4.0463,4.0461,4.0455,4.0457,4.0441,4.0458,4.043,4.0453,4.0433,4.0437,4.0434,4.0436,4.0435,4.0404,4.045,4.0528,4.0535,4.0437,4.0436,4.0435,0,4.0456,4.0469,4.0491,4.0491,4.0484,4.0495,4.0492,4.0489,4.0494,4.0497,4.05,4.0506,4.0509,4.0514,4.0499,4.0481,4.0525,4.0496,4.052,4.052,4.0529,4.0528,4.0608,4.0534,4.0534,4.0534,4.0533,0,4.0514,4.0534,4.0515,4.0527,4.055,4.0532,4.0555,4.055,4.0548,4.056,4.0538,4.0549,4.053,4.054,4.0529,4.055,4.0551,4.0547,4.0543,4.0548,4.0548,4.055,4.0545,4.0535,4.0535,4.0535,4.0534,0,4.0576,4.0564,4.0585,4.0577,4.0576,4.0593,4.0586,4.0598,4.059,4.0605,4.0608,4.0595,4.0605,4.0591,4.0601,4.0593,4.0622,4.0614,4.0622,4.062,4.0644,4.0642,4.0726,4.0736,4.0657,4.0657,4.0658,0,4.0613,4.0629,4.0623,4.0629,4.0628,4.0639,4.0644,4.0627,4.0633,4.0633,4.0645,4.0654,4.0659,4.0678,4.0669,4.0676,4.0668,4.0697,4.0668,4.0673,4.0667,4.0666,4.0668,4.0702,4.0703,4.0704,4.0705,0,4.068,4.0674,4.0681,4.0687,4.0694,4.0697,4.07,4.0706,4.0689,4.0697,4.0707,4.0712,4.0722,4.0731,4.0736,4.0733,4.0716,4.0714,4.072,4.0724,4.0728,4.0726,4.0637,4.0712,4.0711,4.071,4.071,4.071,4.0731,4.0743,4.0742,4.0751,4.0751,4.0754,4.0765,4.0759,4.0767,4.0774,4.0764,4.0777,4.0776,4.0781,4.0781,4.0791,4.0779,4.0787,4.0789,4.0791,4.0795,4.0728,4.0792,4.0792,4.0792,4.0792,4.0791,0,4.0796,4.0794,4.0803,4.0807,4.0815,4.0799,4.0801,4.0808,4.082,4.0821,4.0828,4.084,4.0849,4.0842,4.085,4.0859,4.0852,4.0862,4.086,4.086,4.0806,4.08,4.0868,4.0868,4.0868,4.0868,4.0868,4.0868,4.0831,4.0852,4.0845,4.0866,4.0864,4.0877,4.088,4.0882,4.0883,4.0898,4.0905,4.0901,4.0898,4.0906,4.0913,4.0911,4.0915,4.0927,4.0922,4.0871,4.0864,4.0857,4.0851,4.0929,4.0929,4.0976,4.0976,4.0976]}]]